K8MUD Weather Reports


time (UTC)temp
C
wind
direction
speed
KPH
gust
KPH
rain 1hr
cm
rain 24hr
cm
rain mn
cm
humidity
%
barometer
mb
20260506124501 7 340 4.8 16.1 0.00 0.05 0.00 68 1010.1
20260506124216 7 333 3.2 12.9 0.00 0.05 0.00 68 1010.2
20260506124002 7 320 3.2 8.0 0.00 0.05 0.00 68 1010.2
20260506123715 7 319 3.2 6.4 0.00 0.05 0.00 68 1010.1
20260506123522 7 319 1.6 6.4 0.00 0.05 0.00 68 1010.1
20260506123215 7 327 3.2 6.4 0.00 0.05 0.00 69 1010.1
20260506123023 7 334 3.2 8.0 0.00 0.05 0.00 69 1010.1
20260506122715 7 323 6.4 17.7 0.00 0.05 0.00 70 1010.1
20260506122502 7 322 6.4 17.7 0.00 0.05 0.00 69 1010.1
20260506122215 7 318 6.4 17.7 0.00 0.05 0.00 69 1010.1
20260506122001 7 315 8.0 17.7 0.00 0.05 0.00 69 1010.2
20260506121715 7 318 8.0 16.1 0.00 0.05 0.00 69 1010.3
20260506121502 7 317 8.0 16.1 0.00 0.05 0.00 69 1010.3
20260506121215 7 322 8.0 16.1 0.00 0.05 0.00 68 1010.1
20260506121023 7 322 6.4 16.1 0.00 0.05 0.00 69 1010.0
20260506120715 7 324 6.4 14.5 0.00 0.05 0.00 69 1010.0
20260506120501 7 322 6.4 14.5 0.00 0.05 0.00 68 1010.0
20260506120215 7 317 8.0 14.5 0.00 0.05 0.00 68 1009.9
20260506120023 7 317 8.0 14.5 0.00 0.05 0.00 68 1009.9
20260506115715 7 315 8.0 16.1 0.00 0.05 0.00 68 1009.7
20260506115523 7 318 8.0 16.1 0.00 0.05 0.00 67 1009.8
20260506115215 7 319 6.4 16.1 0.00 0.05 0.00 68 1009.7
20260506115001 7 318 6.4 16.1 0.00 0.05 0.00 67 1009.7
20260506114715 7 319 6.4 14.5 0.00 0.05 0.00 67 1009.6
20260506114502 7 319 6.4 14.5 0.00 0.05 0.00 67 1009.5
20260506114215 7 320 6.4 14.5 0.00 0.05 0.00 68 1009.6
20260506114002 7 328 6.4 14.5 0.00 0.05 0.00 68 1009.6
20260506113715 7 334 4.8 12.9 0.00 0.05 0.00 68 1009.4
20260506113502 7 330 4.8 12.9 0.00 0.05 0.00 68 1009.5
20260506113215 7 321 4.8 11.3 0.00 0.05 0.00 68 1009.4
20260506113002 7 318 4.8 11.3 0.00 0.05 0.00 67 1009.3
20260506112714 7 325 4.8 14.5 0.00 0.05 0.00 68 1009.3
20260506112502 7 324 4.8 14.5 0.00 0.05 0.00 68 1009.3
20260506112214 7 319 6.4 14.5 0.00 0.05 0.00 68 1009.4
20260506112002 7 310 6.4 14.5 0.00 0.05 0.00 68 1009.3
20260506111714 7 309 6.4 14.5 0.00 0.05 0.00 68 1009.2
20260506111502 7 306 6.4 14.5 0.00 0.05 0.00 68 1009.3
20260506111214 7 308 6.4 14.5 0.00 0.05 0.00 70 1009.3
20260506111002 7 310 6.4 14.5 0.00 0.05 0.00 69 1009.2
20260506110714 7 303 4.8 11.3 0.00 0.05 0.00 70 1009.2
20260506110502 7 303 4.8 11.3 0.00 0.05 0.00 70 1009.1
20260506110214 7 308 4.8 9.7 0.00 0.05 0.00 70 1009.0
20260506110002 7 311 3.2 9.7 0.00 0.05 0.00 69 1009.0
20260506105714 7 311 4.8 9.7 0.00 0.05 0.00 68 1009.0
20260506105502 7 317 4.8 9.7 0.00 0.05 0.00 68 1008.9
20260506105214 7 323 4.8 12.9 0.00 0.05 0.00 69 1008.7
20260506105024 7 323 4.8 12.9 0.00 0.05 0.00 69 1008.7
20260506104714 7 325 4.8 12.9 0.00 0.05 0.00 69 1008.7
20260506104502 7 325 4.8 12.9 0.00 0.05 0.00 68 1008.6
20260506104214 7 316 3.2 12.9 0.00 0.05 0.00 69 1008.6
20260506104023 7 313 3.2 12.9 0.00 0.05 0.00 69 1008.7
20260506103714 7 310 3.2 8.0 0.00 0.05 0.00 69 1008.5
20260506103523 7 311 3.2 8.0 0.00 0.05 0.00 69 1008.5
20260506103214 7 308 3.2 8.0 0.00 0.05 0.00 69 1008.4
20260506103001 7 312 3.2 8.0 0.00 0.05 0.00 69 1008.5
20260506102713 7 323 3.2 8.0 0.00 0.05 0.00 69 1008.3
20260506102502 7 327 3.2 8.0 0.00 0.05 0.00 69 1008.3
20260506102213 7 341 3.2 6.4 0.00 0.05 0.00 70 1008.3
20260506102002 7 339 3.2 8.0 0.00 0.05 0.00 70 1008.2
20260506101713 7 340 3.2 8.0 0.00 0.05 0.00 70 1008.2
20260506101501 7 341 3.2 8.0 0.00 0.05 0.00 69 1008.2
20260506101213 7 341 3.2 8.0 0.00 0.05 0.00 69 1008.2
20260506101002 7 339 3.2 8.0 0.00 0.05 0.00 70 1008.2
20260506100713 7 333 3.2 8.0 0.00 0.05 0.00 70 1008.4
20260506100503 7 328 3.2 8.0 0.00 0.05 0.00 70 1008.3
20260506100213 7 323 3.2 8.0 0.00 0.05 0.00 71 1008.3
20260506100022 7 324 3.2 8.0 0.00 0.05 0.00 71 1008.2
20260506095713 8 323 3.2 8.0 0.00 0.05 0.00 71 1008.1
20260506095501 8 323 3.2 14.5 0.00 0.05 0.00 71 1008.1
20260506095213 8 328 4.8 14.5 0.00 0.05 0.00 71 1008.1
20260506095002 8 336 4.8 14.5 0.00 0.05 0.00 71 1008.0
20260506094713 8 347 4.8 14.5 0.00 0.05 0.00 71 1008.1
20260506094502 8 355 4.8 14.5 0.00 0.05 0.00 70 1008.2
20260506094213 8 1 6.4 14.5 0.00 0.05 0.00 70 1008.3
20260506094002 8 359 4.8 14.5 0.00 0.05 0.00 70 1008.3
20260506093713 8 351 4.8 12.9 0.00 0.05 0.00 70 1008.2
20260506093523 8 348 4.8 12.9 0.00 0.05 0.00 71 1008.2
20260506093213 8 343 4.8 11.3 0.00 0.05 0.00 71 1008.2
20260506093002 8 339 4.8 12.9 0.00 0.05 0.00 71 1008.1
20260506092713 8 338 4.8 12.9 0.00 0.05 0.00 70 1008.2
20260506092502 8 338 6.4 12.9 0.00 0.05 0.00 70 1008.0
20260506092213 8 334 4.8 12.9 0.00 0.05 0.00 69 1007.9
20260506092002 8 339 4.8 9.7 0.00 0.05 0.00 69 1008.0
20260506091713 8 339 3.2 9.7 0.00 0.05 0.00 69 1007.9
20260506091502 9 341 3.2 9.7 0.00 0.05 0.00 68 1007.9
20260506091213 9 339 3.2 8.0 0.00 0.05 0.00 67 1007.9
20260506091001 9 333 3.2 6.4 0.00 0.05 0.00 67 1007.8
20260506090712 9 331 3.2 6.4 0.00 0.05 0.00 66 1007.7
20260506090502 9 327 3.2 8.0 0.00 0.05 0.00 65 1007.7
20260506090212 9 318 3.2 8.0 0.00 0.05 0.00 65 1007.8
20260506090023 9 318 3.2 8.0 0.00 0.05 0.00 64 1007.7
20260506085712 9 325 4.8 12.9 0.00 0.05 0.00 63 1008.0
20260506085501 9 325 6.4 14.5 0.00 0.05 0.00 63 1008.0
20260506085212 10 323 6.4 14.5 0.00 0.05 0.00 62 1008.0
20260506085002 10 322 6.4 14.5 0.00 0.05 0.00 61 1008.0
20260506084712 10 318 4.8 14.5 0.00 0.05 0.00 61 1007.7
20260506084502 10 317 4.8 12.9 0.00 0.05 0.00 61 1007.6
20260506084212 10 320 3.2 12.9 0.00 0.05 0.00 60 1007.5
20260506084002 10 317 3.2 11.3 0.00 0.05 0.00 60 1007.5
20260506083712 10 312 3.2 11.3 0.00 0.05 0.00 60 1007.5
20260506083502 10 315 4.8 11.3 0.00 0.05 0.00 59 1007.5
20260506083212 10 318 4.8 11.3 0.00 0.05 0.00 59 1007.6
20260506083023 10 321 4.8 14.5 0.00 0.05 0.00 59 1007.5
20260506082712 10 326 4.8 14.5 0.00 0.05 0.00 58 1007.5
20260506082502 10 323 4.8 14.5 0.00 0.05 0.00 58 1007.5
20260506082212 10 315 4.8 14.5 0.00 0.05 0.00 58 1007.5
20260506082003 10 313 4.8 12.9 0.00 0.05 0.00 58 1007.7
20260506081712 10 308 4.8 12.9 0.00 0.05 0.00 59 1007.6
20260506081502 10 308 4.8 12.9 0.00 0.05 0.00 58 1007.7
20260506081212 10 307 4.8 12.9 0.00 0.05 0.00 59 1007.6
20260506081002 10 304 4.8 11.3 0.00 0.05 0.00 58 1007.5
20260506080712 10 302 4.8 9.7 0.00 0.05 0.00 59 1007.8
20260506080502 10 300 4.8 11.3 0.00 0.05 0.00 59 1007.7
20260506080211 10 299 4.8 11.3 0.00 0.05 0.00 60 1007.8
20260506073502 10 296 3.2 8.0 0.00 0.05 0.00 60 1007.4
20260506073211 10 295 4.8 11.3 0.00 0.05 0.00 60 1007.4
20260506073002 10 292 4.8 11.3 0.00 0.05 0.00 60 1007.4
20260506072711 10 291 4.8 11.3 0.00 0.05 0.00 60 1007.5
20260506072501 10 286 4.8 11.3 0.00 0.05 0.00 61 1007.5
20260506072211 10 269 4.8 11.3 0.00 0.05 0.00 61 1007.5
20260506072002 10 257 4.8 11.3 0.00 0.05 0.00 63 1007.5
20260506071711 10 239 3.2 11.3 0.00 0.05 0.00 63 1007.7
20260506071523 10 230 3.2 6.4 0.00 0.05 0.00 65 1007.7
20260506071211 10 228 3.2 6.4 0.00 0.05 0.00 68 1007.6
20260506071002 10 228 3.2 6.4 0.00 0.05 0.00 68 1007.6
20260506070711 10 228 1.6 6.4 0.00 0.05 0.00 70 1007.5
20260506070502 10 228 1.6 4.8 0.00 0.05 0.00 71 1007.4
20260506070211 10 228 1.6 4.8 0.00 0.05 0.00 71 1007.3
20260506062502 10 228 3.2 6.4 0.00 0.05 0.00 71 1007.8
20260506062210 10 229 3.2 6.4 0.00 0.05 0.00 70 1007.9
20260506062002 10 230 1.6 6.4 0.00 0.05 0.00 70 1007.9
20260506061710 10 231 3.2 6.4 0.00 0.05 0.00 70 1007.8
20260506061502 10 232 1.6 6.4 0.00 0.05 0.00 70 1007.9
20260506061210 10 232 1.6 6.4 0.00 0.05 0.00 70 1007.7
20260506061024 10 232 1.6 6.4 0.00 0.05 0.00 70 1007.7
20260506060710 10 231 1.6 4.8 0.00 0.05 0.00 69 1007.7
20260506060502 10 230 1.6 6.4 0.00 0.05 0.00 69 1007.7
20260506060210 10 229 3.2 6.4 0.00 0.05 0.00 68 1007.7
20260506051148 11 250 3.2 6.4 0.00 0.13 0.00 55 1007.9
20260506051003 11 251 3.2 6.4 0.00 0.15 0.00 55 1007.9
20260506050648 11 255 1.6 6.4 0.00 0.18 0.00 55 1007.8
20260506050503 11 257 1.6 6.4 0.00 0.18 0.00 54 1007.9
20260506050148 11 263 1.6 4.8 0.00 0.18 0.00 55 1007.8
20260506045003 11 264 3.2 6.4 0.00 0.18 0.00 54 1007.9
20260506044648 11 270 3.2 6.4 0.00 0.18 0.00 54 1007.8
20260506044504 11 274 3.2 6.4 0.00 0.18 0.00 53 1007.8
20260506044147 11 291 1.6 6.4 0.00 0.18 0.00 54 1007.7
20260506044003 11 296 1.6 6.4 0.00 0.18 0.00 53 1007.6
20260506043647 11 296 3.2 6.4 0.00 0.18 0.00 54 1007.7
20260506043524 11 296 3.2 6.4 0.00 0.18 0.00 54 1007.7
20260506043147 11 290 4.8 9.7 0.00 0.18 0.00 53 1007.6
20260506043024 11 289 4.8 9.7 0.00 0.18 0.00 53 1007.6
20260506042647 11 276 4.8 9.7 0.00 0.18 0.00 53 1007.6
20260506042502 11 273 4.8 9.7 0.00 0.18 0.00 53 1007.6
20260506042147 11 262 3.2 6.4 0.00 0.18 0.00 54 1007.6
20260506042003 11 262 3.2 6.4 0.00 0.18 0.00 54 1007.6
20260506041647 11 261 1.6 6.4 0.00 0.18 0.00 54 1007.6
20260506041503 11 261 1.6 6.4 0.00 0.18 0.00 54 1007.6
20260506041147 11 261 0.0 3.2 0.00 0.18 0.00 54 1007.5
20260506041003 11 261 0.0 1.6 0.00 0.18 0.00 54 1007.5
20260506040647 11 261 1.6 3.2 0.00 0.18 0.00 53 1007.6
20260506040524 11 261 1.6 3.2 0.00 0.18 0.00 53 1007.6
20260506040147 11 261 1.6 4.8 0.00 0.18 0.00 54 1007.8
20260506040003 11 261 1.6 4.8 0.00 0.18 0.00 53 1007.8
20260506035647 11 261 3.2 4.8 0.00 0.18 0.18 53 1007.7
20260506035503 11 261 3.2 6.4 0.00 0.18 0.18 53 1007.8
20260506035147 11 261 1.6 6.4 0.00 0.18 0.18 53 1007.8
20260506035003 11 261 1.6 6.4 0.00 0.18 0.18 53 1007.8
20260506034647 11 261 1.6 6.4 0.00 0.18 0.18 53 1007.8
20260506034503 11 261 1.6 6.4 0.00 0.18 0.18 54 1007.8
20260506034147 11 261 1.6 6.4 0.00 0.18 0.18 53 1007.9
20260506034024 11 261 1.6 6.4 0.00 0.18 0.18 53 1007.9
20260506033646 11 261 1.6 6.4 0.00 0.18 0.18 53 1008.1
20260506033524 11 261 1.6 6.4 0.00 0.18 0.18 53 1008.1
20260506033146 11 261 3.2 6.4 0.00 0.18 0.18 53 1008.1
20260506033004 11 261 3.2 6.4 0.00 0.18 0.18 52 1008.1
20260506032646 11 261 3.2 6.4 0.00 0.18 0.18 52 1008.0
20260506032503 11 261 3.2 6.4 0.00 0.18 0.18 52 1008.0
20260506032146 12 261 3.2 9.7 0.00 0.18 0.18 52 1007.9
20260506032003 12 261 3.2 9.7 0.00 0.18 0.18 52 1007.9
20260506031646 12 261 3.2 9.7 0.00 0.18 0.18 52 1007.9
20260506031502 12 261 3.2 9.7 0.00 0.18 0.18 52 1007.9
20260506031146 12 265 3.2 9.7 0.00 0.18 0.18 52 1007.9
20260506031003 12 267 3.2 9.7 0.00 0.18 0.18 52 1007.9
20260506030646 12 271 4.8 9.7 0.00 0.18 0.18 52 1007.9
20260506030503 12 272 4.8 9.7 0.00 0.18 0.18 52 1008.0
20260506030146 12 275 4.8 11.3 0.00 0.18 0.18 52 1008.1
20260506030003 12 275 4.8 11.3 0.00 0.18 0.18 52 1007.9
20260506025646 12 271 6.4 11.3 0.00 0.18 0.18 52 1007.9
20260506025504 12 269 6.4 11.3 0.00 0.18 0.18 51 1007.9
20260506025146 12 259 4.8 11.3 0.00 0.18 0.18 52 1007.9
20260506025003 12 256 4.8 11.3 0.00 0.18 0.18 53 1007.9
20260506024646 12 252 4.8 12.9 0.00 0.18 0.18 52 1007.9
20260506024503 12 256 4.8 12.9 0.00 0.18 0.18 52 1007.9
20260506024146 12 260 6.4 12.9 0.00 0.18 0.18 52 1007.9
20260506024024 12 261 6.4 12.9 0.00 0.18 0.18 52 1007.9
20260506023645 12 273 6.4 11.3 0.00 0.18 0.18 52 1007.9
20260506023504 12 274 6.4 12.9 0.00 0.18 0.18 52 1007.9
20260506023145 12 280 4.8 12.9 0.00 0.18 0.18 53 1007.9
20260506023003 12 280 4.8 12.9 0.00 0.18 0.18 53 1007.9
20260506022645 12 274 4.8 12.9 0.00 0.18 0.18 53 1007.8
20260506022503 12 271 4.8 12.9 0.00 0.18 0.18 54 1007.9
20260506022145 12 270 4.8 9.7 0.00 0.18 0.18 54 1007.8
20260506022005 12 270 4.8 9.7 0.00 0.18 0.18 54 1007.8
20260506021645 12 267 4.8 9.7 0.00 0.18 0.18 53 1007.7
20260506021503 12 266 4.8 9.7 0.00 0.18 0.18 54 1007.7
20260506021145 12 262 3.2 9.7 0.00 0.18 0.18 54 1007.7
20260506021024 12 262 3.2 9.7 0.00 0.18 0.18 55 1007.7
20260506020645 12 263 3.2 6.4 0.00 0.18 0.18 55 1007.5
20260506020504 12 264 3.2 6.4 0.00 0.18 0.18 54 1007.5
20260506020145 12 266 3.2 11.3 0.00 0.18 0.18 54 1007.4
20260506020003 12 267 3.2 11.3 0.00 0.18 0.18 55 1007.4
20260506015645 12 269 3.2 11.3 0.00 0.18 0.18 56 1007.4
20260506015503 12 269 3.2 11.3 0.00 0.18 0.18 56 1007.4
20260506015145 12 271 3.2 6.4 0.00 0.18 0.18 56 1007.4
20260506015004 12 271 3.2 6.4 0.00 0.18 0.18 56 1007.4
20260506014645 12 271 3.2 6.4 0.00 0.18 0.18 56 1007.3
20260506014503 12 271 3.2 6.4 0.00 0.18 0.18 56 1007.3
20260506014145 12 271 1.6 6.4 0.00 0.18 0.18 58 1007.3
20260506014024 12 271 1.6 4.8 0.00 0.18 0.18 58 1007.3
20260506013645 12 271 3.2 4.8 0.00 0.18 0.18 57 1007.3
20260506013504 12 271 3.2 4.8 0.00 0.18 0.18 57 1007.3
20260506013145 12 271 3.2 4.8 0.00 0.18 0.18 57 1007.3
20260506013004 12 271 3.2 4.8 0.00 0.18 0.18 57 1007.3
20260506012645 12 271 1.6 4.8 0.00 0.18 0.18 58 1007.2
20260506012503 12 271 1.6 6.4 0.00 0.18 0.18 57 1007.3
20260506012145 12 271 3.2 6.4 0.00 0.18 0.18 57 1007.2
20260506012003 12 271 3.2 6.4 0.00 0.18 0.18 57 1007.1
20260506011645 12 271 3.2 6.4 0.00 0.18 0.18 56 1007.2
20260506011503 12 272 3.2 6.4 0.00 0.18 0.18 56 1007.2
20260506011145 12 278 4.8 9.7 0.00 0.20 0.18 57 1007.3
20260506011003 12 279 4.8 9.7 0.00 0.20 0.18 57 1007.3
20260506010645 12 282 4.8 12.9 0.00 0.20 0.18 56 1007.3
20260506010503 12 280 4.8 12.9 0.00 0.20 0.18 57 1007.3
20260506010144 12 273 4.8 12.9 0.00 0.20 0.18 57 1007.4
20260506010004 12 273 4.8 12.9 0.00 0.20 0.18 57 1007.4
20260506005644 12 268 4.8 12.9 0.00 0.20 0.18 57 1007.2
20260506005503 12 268 4.8 12.9 0.00 0.20 0.18 57 1007.2
20260506005144 12 266 4.8 12.9 0.00 0.20 0.18 58 1007.3
20260506005003 12 265 4.8 12.9 0.00 0.20 0.18 57 1007.3
20260506004644 12 263 4.8 11.3 0.00 0.20 0.18 58 1007.3
20260506004504 12 265 4.8 11.3 0.00 0.20 0.18 58 1007.3
20260506004144 12 270 6.4 12.9 0.00 0.20 0.18 58 1007.4
20260506004004 12 270 6.4 12.9 0.00 0.20 0.18 58 1007.4
20260506003614 12 273 6.4 12.9 0.00 0.20 0.18 58 1007.4
20260506003501 12 273 6.4 12.9 0.00 0.20 0.18 58 1007.4
20260506003114 12 272 8.0 14.5 0.00 0.20 0.18 58 1007.3
20260506003023 12 273 8.0 16.1 0.00 0.20 0.18 58 1007.3
20260506002614 12 273 8.0 16.1 0.00 0.20 0.18 59 1007.2
20260506002501 12 274 8.0 16.1 0.00 0.20 0.18 59 1007.1
20260506002114 13 275 9.7 17.7 0.00 0.20 0.18 59 1007.1
20260506002023 13 273 9.7 17.7 0.00 0.20 0.18 59 1007.1
20260506001614 13 269 8.0 17.7 0.00 0.20 0.18 61 1007.0
20260506001501 13 267 8.0 17.7 0.00 0.20 0.18 61 1007.0
20260506001114 13 258 3.2 16.1 0.00 0.20 0.18 63 1006.8
20260506001001 13 262 3.2 16.1 0.00 0.20 0.18 63 1006.8
20260506000614 13 248 1.6 6.4 0.00 0.20 0.18 67 1006.8
20260506000522 13 248 1.6 6.4 0.00 0.20 0.18 68 1006.8
20260506000114 13 248 3.2 4.8 0.00 0.23 0.18 67 1006.7
20260506000001 13 248 3.2 6.4 0.00 0.25 0.18 67 1006.6
20260505235614 13 248 3.2 6.4 0.00 0.28 0.18 67 1006.5
20260505235501 13 248 3.2 6.4 0.00 0.28 0.18 67 1006.5
20260505235114 13 249 3.2 11.3 0.00 0.28 0.18 67 1006.5
20260505235023 13 249 3.2 11.3 0.00 0.28 0.18 67 1006.5
20260505234614 13 250 4.8 11.3 0.00 0.28 0.18 67 1006.6
20260505234522 13 252 4.8 11.3 0.00 0.28 0.18 67 1006.6
20260505234113 13 261 4.8 11.3 0.00 0.28 0.18 67 1006.4
20260505234001 13 263 4.8 11.3 0.00 0.28 0.18 67 1006.4
20260505233613 13 274 3.2 9.7 0.00 0.28 0.18 67 1006.5
20260505233522 13 274 3.2 9.7 0.00 0.28 0.18 67 1006.5
20260505233113 13 274 3.2 6.4 0.00 0.28 0.18 67 1006.4
20260505233001 13 275 3.2 6.4 0.00 0.28 0.18 66 1006.4
20260505232613 13 273 3.2 8.0 0.00 0.28 0.18 67 1006.4
20260505232502 13 274 4.8 9.7 0.00 0.28 0.18 67 1006.4
20260505232113 13 253 4.8 11.3 0.00 0.28 0.18 67 1006.4
20260505232001 13 251 4.8 11.3 0.00 0.28 0.18 67 1006.4
20260505231613 13 251 4.8 14.5 0.00 0.28 0.18 66 1006.4
20260505231502 13 249 4.8 14.5 0.00 0.28 0.18 66 1006.4
20260505231113 13 263 4.8 14.5 0.00 0.28 0.18 66 1006.5
20260505231002 13 266 4.8 14.5 0.00 0.28 0.18 66 1006.5
20260505230613 13 270 4.8 11.3 0.00 0.28 0.18 66 1006.5
20260505230501 13 271 4.8 11.3 0.00 0.28 0.18 66 1006.4
20260505230113 13 277 4.8 11.3 0.00 0.28 0.18 66 1006.4
20260505230001 13 271 4.8 12.9 0.00 0.28 0.18 66 1006.5
20260505225613 13 261 4.8 12.9 0.00 0.28 0.18 66 1006.5
20260505225502 13 260 4.8 12.9 0.00 0.28 0.18 66 1006.5
20260505225113 13 237 4.8 12.9 0.00 0.28 0.18 66 1006.6
20260505225001 13 233 4.8 12.9 0.00 0.28 0.18 66 1006.6
20260505224613 13 244 4.8 9.7 0.00 0.28 0.18 66 1006.7
20260505224501 13 249 4.8 9.7 0.00 0.28 0.18 66 1006.7
20260505224112 13 282 6.4 16.1 0.00 0.28 0.18 66 1006.7
20260505224002 13 286 6.4 16.1 0.00 0.28 0.18 66 1006.8
20260505223612 13 277 8.0 16.1 0.00 0.28 0.18 65 1006.8
20260505223502 13 275 8.0 16.1 0.00 0.28 0.18 65 1006.8
20260505223112 13 256 6.4 14.5 0.00 0.28 0.18 66 1006.8
20260505223001 13 252 4.8 14.5 0.00 0.28 0.18 66 1006.8
20260505222612 13 253 4.8 14.5 0.00 0.28 0.18 66 1006.8
20260505222501 13 249 4.8 12.9 0.00 0.28 0.18 66 1006.8
20260505222112 13 260 6.4 16.1 0.00 0.28 0.18 66 1006.7
20260505222001 13 262 6.4 16.1 0.00 0.28 0.18 66 1006.7
20260505221612 13 263 8.0 17.7 0.00 0.28 0.18 66 1006.6
20260505221501 13 264 8.0 17.7 0.00 0.28 0.18 65 1006.6
20260505221112 13 262 6.4 17.7 0.00 0.28 0.18 66 1006.8
20260505221022 13 261 6.4 17.7 0.00 0.28 0.18 65 1006.8
20260505220612 13 264 4.8 14.5 0.00 0.28 0.18 65 1006.9
20260505220502 13 264 4.8 14.5 0.00 0.28 0.18 65 1006.9
20260505220112 13 264 6.4 11.3 0.00 0.28 0.18 65 1006.8
20260505220001 13 262 6.4 12.9 0.00 0.28 0.18 65 1006.8
20260505215612 13 267 6.4 16.1 0.00 0.28 0.18 65 1006.9
20260505215502 13 269 6.4 16.1 0.00 0.28 0.18 65 1006.9
20260505215112 13 274 6.4 16.1 0.00 0.28 0.18 65 1006.9
20260505215001 13 277 6.4 16.1 0.00 0.28 0.18 65 1006.9
20260505214612 13 282 6.4 16.1 0.00 0.28 0.18 65 1006.9
20260505214501 13 281 6.4 16.1 0.00 0.28 0.18 65 1006.9
20260505214111 13 279 6.4 16.1 0.00 0.28 0.18 65 1006.8
20260505214001 13 276 6.4 16.1 0.00 0.28 0.18 66 1006.8
20260505213611 13 268 8.0 14.5 0.00 0.28 0.18 66 1006.7
20260505213502 14 269 8.0 14.5 0.00 0.28 0.18 65 1006.7
20260505213111 14 268 6.4 14.5 0.00 0.28 0.18 65 1006.7
20260505213002 14 271 6.4 14.5 0.00 0.28 0.18 65 1006.6
20260505212611 14 262 6.4 14.5 0.00 0.28 0.18 66 1006.6
20260505212522 14 258 6.4 14.5 0.00 0.28 0.18 66 1006.5
20260505212111 13 253 8.0 16.1 0.00 0.28 0.18 65 1006.6
20260505212023 14 251 8.0 16.1 0.00 0.28 0.18 66 1006.5
20260505211611 13 257 8.0 19.3 0.00 0.28 0.18 66 1006.5
20260505211501 13 258 8.0 19.3 0.00 0.28 0.18 66 1006.5
20260505211111 13 258 8.0 19.3 0.00 0.28 0.18 66 1006.5
20260505211023 13 259 8.0 19.3 0.00 0.28 0.18 66 1006.5
20260505210611 13 253 6.4 16.1 0.00 0.28 0.18 67 1006.5
20260505210501 13 250 6.4 16.1 0.00 0.28 0.18 67 1006.6
20260505210111 13 238 4.8 11.3 0.00 0.28 0.18 68 1006.7
20260505210001 13 234 4.8 11.3 0.00 0.28 0.18 68 1006.8
20260505205611 13 225 6.4 14.5 0.00 0.28 0.18 68 1006.8
20260505205523 13 225 6.4 14.5 0.00 0.28 0.18 67 1006.8
20260505205111 13 226 6.4 14.5 0.00 0.28 0.18 67 1006.9
20260505205001 13 234 6.4 14.5 0.00 0.28 0.18 68 1006.9
20260505204611 13 247 6.4 14.5 0.00 0.28 0.18 68 1006.9
20260505204501 13 249 6.4 14.5 0.00 0.28 0.18 68 1006.9
20260505204111 13 252 6.4 14.5 0.00 0.28 0.18 68 1006.8
20260505204002 13 248 6.4 14.5 0.00 0.28 0.18 68 1006.8
20260505203610 13 251 6.4 14.5 0.00 0.28 0.18 68 1006.9
20260505203502 13 253 6.4 14.5 0.00 0.28 0.18 68 1006.9
20260505203110 13 259 6.4 14.5 0.00 0.28 0.18 69 1006.8
20260505203002 13 261 6.4 14.5 0.00 0.28 0.18 68 1006.8
20260505202610 13 259 6.4 16.1 0.00 0.28 0.18 69 1006.9
20260505202501 13 257 6.4 16.1 0.00 0.28 0.18 69 1006.9
20260505202110 13 255 4.8 16.1 0.00 0.28 0.18 70 1007.0
20260505202002 13 252 4.8 16.1 0.00 0.28 0.18 70 1007.0
20260505201610 13 237 4.8 11.3 0.00 0.28 0.18 70 1006.9
20260505201502 13 241 4.8 11.3 0.00 0.28 0.18 70 1006.8
20260505201110 13 246 4.8 14.5 0.00 0.28 0.18 69 1006.8
20260505201002 13 251 4.8 14.5 0.00 0.28 0.18 69 1006.8
20260505200610 13 272 4.8 14.5 0.00 0.28 0.18 70 1006.8
20260505200501 13 270 4.8 14.5 0.00 0.28 0.18 71 1006.8
20260505200110 12 265 4.8 11.3 0.00 0.28 0.18 70 1006.8
20260505200002 12 263 4.8 11.3 0.00 0.28 0.18 70 1006.7
20260505195610 12 242 4.8 11.3 0.00 0.28 0.18 70 1006.8
20260505195502 12 238 4.8 11.3 0.00 0.28 0.18 70 1006.8
20260505195110 12 237 4.8 16.1 0.00 0.28 0.18 71 1007.0
20260505195022 12 236 4.8 16.1 0.00 0.28 0.18 70 1006.9
20260505194610 12 234 4.8 16.1 0.00 0.28 0.18 70 1006.9
20260505194502 12 232 4.8 16.1 0.00 0.28 0.18 71 1006.9
20260505194110 12 226 4.8 11.3 0.00 0.28 0.18 71 1007.0
20260505194002 12 225 4.8 11.3 0.00 0.28 0.18 70 1007.0
20260505193610 12 226 6.4 16.1 0.00 0.28 0.18 70 1007.0
20260505193523 12 228 6.4 16.1 0.00 0.28 0.18 70 1007.0
20260505193110 12 226 6.4 17.7 0.00 0.28 0.18 70 1007.1
20260505193002 12 225 6.4 17.7 0.00 0.28 0.18 70 1007.1
20260505192609 12 219 6.4 17.7 0.00 0.28 0.18 71 1007.1
20260505192501 12 219 6.4 17.7 0.00 0.28 0.18 71 1007.1
20260505192109 12 233 8.0 17.7 0.00 0.28 0.18 70 1007.3
20260505192002 12 237 8.0 17.7 0.00 0.28 0.18 71 1007.3
20260505191609 12 241 8.0 17.7 0.00 0.28 0.18 71 1007.3
20260505191502 12 241 8.0 17.7 0.00 0.28 0.18 71 1007.3
20260505191109 12 231 8.0 17.7 0.00 0.28 0.18 71 1007.2
20260505191022 12 231 8.0 17.7 0.00 0.28 0.18 70 1007.2
20260505190609 12 240 9.7 19.3 0.00 0.28 0.18 71 1007.2
20260505190502 12 242 9.7 24.1 0.00 0.28 0.18 70 1007.2
20260505190109 12 244 11.3 24.1 0.00 0.28 0.18 71 1007.1
20260505190002 12 241 11.3 24.1 0.00 0.28 0.18 71 1007.1
20260505185609 12 236 8.0 24.1 0.00 0.28 0.18 72 1007.2
20260505185501 12 232 8.0 17.7 0.00 0.28 0.18 72 1007.0
20260505185109 12 225 6.4 16.1 0.00 0.28 0.18 74 1006.9
20260505185003 12 227 6.4 16.1 0.00 0.28 0.18 74 1006.9
20260505184609 12 221 6.4 16.1 0.00 0.28 0.18 73 1006.9
20260505184502 12 220 6.4 16.1 0.00 0.28 0.18 73 1006.8
20260505184109 12 226 4.8 14.5 0.00 0.28 0.18 75 1006.7
20260505184002 12 227 4.8 14.5 0.00 0.28 0.18 76 1006.7
20260505183609 12 225 6.4 14.5 0.03 0.28 0.18 76 1006.8
20260505183501 12 223 6.4 14.5 0.03 0.28 0.18 76 1006.8
20260505183109 12 215 6.4 12.9 0.03 0.28 0.18 78 1006.7
20260505183002 12 214 6.4 12.9 0.03 0.28 0.18 77 1006.7
20260505182609 12 211 6.4 12.9 0.03 0.28 0.18 79 1006.8
20260505182502 12 213 6.4 12.9 0.03 0.28 0.18 78 1006.7
20260505182109 12 223 4.8 9.7 0.03 0.28 0.18 79 1006.8
20260505182001 12 229 4.8 9.7 0.03 0.28 0.18 80 1006.7
20260505181609 11 224 4.8 12.9 0.03 0.28 0.18 80 1006.6
20260505181501 11 223 4.8 12.9 0.03 0.28 0.18 80 1006.6
20260505181108 11 221 4.8 12.9 0.03 0.28 0.18 79 1006.8
20260505181002 11 219 4.8 12.9 0.03 0.28 0.18 79 1006.8
20260505180608 11 230 4.8 14.5 0.05 0.28 0.18 80 1006.8
20260505180501 11 232 4.8 17.7 0.05 0.28 0.18 80 1006.8
20260505180108 11 241 6.4 19.3 0.05 0.28 0.18 80 1006.8
20260505180001 11 239 6.4 19.3 0.05 0.28 0.18 80 1006.8
20260505175608 11 246 6.4 19.3 0.05 0.28 0.18 81 1006.7
20260505175523 11 247 6.4 19.3 0.05 0.28 0.18 81 1006.7
20260505175108 11 243 4.8 14.5 0.05 0.28 0.18 82 1006.7
20260505175003 11 244 4.8 14.5 0.05 0.28 0.18 82 1006.7
20260505174608 11 238 3.2 12.9 0.05 0.28 0.18 82 1006.7
20260505174501 11 240 3.2 11.3 0.05 0.28 0.18 83 1006.7
20260505174108 11 270 3.2 11.3 0.05 0.28 0.18 83 1006.7
20260505174002 11 278 3.2 11.3 0.05 0.28 0.18 83 1006.7
20260505173608 11 295 4.8 12.9 0.03 0.25 0.15 84 1006.7
20260505173502 11 298 4.8 12.9 0.03 0.25 0.15 84 1006.7
20260505173108 11 299 3.2 12.9 0.03 0.25 0.15 84 1006.7
20260505173002 11 302 3.2 12.9 0.03 0.25 0.15 84 1006.8
20260505172608 11 77 0.0 4.8 0.03 0.25 0.15 83 1006.9
20260505172523 11 77 0.0 4.8 0.03 0.25 0.15 82 1006.9
20260505172108 11 77 0.0 1.6 0.03 0.25 0.15 81 1006.8
20260505172002 11 77 0.0 3.2 0.03 0.25 0.15 81 1006.7
20260505171608 11 77 0.0 3.2 0.03 0.25 0.15 81 1006.7
20260505171503 11 77 0.0 3.2 0.03 0.25 0.15 81 1006.6
20260505171108 11 77 1.6 3.2 0.03 0.25 0.15 80 1006.7
20260505171002 11 77 1.6 3.2 0.03 0.25 0.15 80 1006.7
20260505170608 11 77 1.6 3.2 0.00 0.23 0.13 79 1006.9
20260505170502 11 77 1.6 3.2 0.00 0.23 0.13 78 1007.0
20260505170108 11 77 1.6 4.8 0.00 0.23 0.13 79 1006.9
20260505170001 11 77 1.6 4.8 0.00 0.23 0.13 78 1006.9
20260505165608 11 77 3.2 4.8 0.00 0.23 0.13 78 1006.9
20260505165502 11 77 3.2 4.8 0.00 0.23 0.13 78 1006.9
20260505165107 11 77 3.2 4.8 0.00 0.23 0.13 77 1006.8
20260505165002 12 77 3.2 4.8 0.00 0.23 0.13 77 1006.8
20260505164607 12 76 3.2 6.4 0.00 0.23 0.13 76 1006.6
20260505164523 12 76 3.2 6.4 0.00 0.23 0.13 76 1006.6
20260505164107 12 74 3.2 6.4 0.00 0.23 0.13 76 1006.7
20260505164002 12 73 3.2 6.4 0.00 0.23 0.13 76 1006.7
20260505163607 12 71 3.2 4.8 0.00 0.23 0.13 75 1006.8
20260505163502 12 71 3.2 4.8 0.00 0.23 0.13 74 1006.8
20260505163107 12 70 3.2 6.4 0.00 0.23 0.13 73 1006.6
20260505163002 12 70 3.2 6.4 0.00 0.23 0.13 73 1006.6
20260505162607 12 68 3.2 6.4 0.00 0.23 0.13 72 1006.6
20260505162502 12 68 3.2 6.4 0.00 0.23 0.13 71 1006.6
20260505162107 12 65 3.2 8.0 0.00 0.23 0.13 71 1006.2
20260505162003 12 65 3.2 8.0 0.00 0.23 0.13 70 1006.2
20260505161607 12 64 3.2 8.0 0.00 0.23 0.13 72 1006.0
20260505161502 12 64 3.2 8.0 0.00 0.23 0.13 73 1005.9
20260505161107 12 64 4.8 8.0 0.00 0.23 0.13 72 1005.8
20260505161001 12 64 4.8 8.0 0.00 0.23 0.13 72 1005.7
20260505160607 12 66 4.8 8.0 0.00 0.23 0.13 72 1005.6
20260505160502 12 65 4.8 8.0 0.00 0.23 0.13 73 1005.6
20260505160107 12 64 3.2 8.0 0.00 0.23 0.13 71 1005.8
20260505153037 13 81 4.8 11.3 0.00 0.23 0.13 70 1005.6
20260505153002 13 81 4.8 11.3 0.00 0.23 0.13 70 1005.6
20260505152536 14 74 4.8 14.5 0.00 0.23 0.13 69 1005.3
20260505152502 14 74 4.8 14.5 0.00 0.23 0.13 69 1005.3
20260505152036 15 45 4.8 14.5 0.00 0.23 0.13 67 1005.1
20260505152002 15 44 4.8 14.5 0.00 0.23 0.13 67 1005.1
20260505151536 15 316 3.2 11.3 0.00 0.23 0.13 66 1005.2
20260505151502 15 315 3.2 11.3 0.00 0.23 0.13 66 1005.2
20260505151036 15 322 3.2 11.3 0.00 0.23 0.13 68 1005.2
20260505151023 15 322 3.2 11.3 0.00 0.23 0.13 68 1005.2
20260505150536 15 331 4.8 11.3 0.00 0.23 0.13 68 1005.1
20260505150502 15 331 4.8 11.3 0.00 0.23 0.13 68 1005.1
20260505140535 16 303 6.4 16.1 0.00 0.23 0.13 61 1004.4
20260505140502 16 302 6.4 16.1 0.00 0.23 0.13 61 1004.4
20260505125035 16 251 8.0 19.3 0.00 0.23 0.13 76 1003.0
20260505125002 16 251 8.0 19.3 0.00 0.23 0.13 76 1003.0
20260505124534 16 241 6.4 17.7 0.00 0.23 0.13 77 1002.6